#timestamp,LO_Frequency,Hit,StdDev 
1680307215.3,286046992.9,N
1680307235.1,286046992.2,N
1680307255.9,286046992.9,N
1680307275.7,286046990.2,N
1680307295.5,286046993.2,N
1680307315.4,286046991.7,N
1680307335.2,286046992.6,N
1680307355.0,286046993.7,N
1680307355.9,286046993.7,N
1680307375.8,286046995.8,N
1680307395.6,286046995.3,N
1680307415.5,286046999.1,N
1680307435.3,286046999.2,N
1680307455.1,286046997.0,N
1680307475.9,286047001.9,N
1680307495.7,286047010.0,N
1680307515.5,286047009.0,N
1680307535.4,286047003.7,N
1680307555.2,286047008.4,N
1680307575.0,286047012.0,N
1680307575.9,286047012.0,N
1680307595.8,286047008.1,N
1680307615.6,286047003.6,N
1680307635.5,286047003.5,N
1680307655.3,286047005.3,N
1680307675.1,286047002.1,N
1680307695.9,286046998.6,N
1680307715.7,286046996.6,N
1680307735.5,286047000.5,N
1680307755.4,286047004.1,N
1680307775.2,286047002.1,N
1680307795.1,286047000.3,N
1680307796.0,286047000.3,N
1680307815.8,286047001.4,N
1680307835.6,286047005.9,N
1680307855.5,286047006.0,N
1680307875.3,286047011.2,N
1680307895.1,286047014.7,N
1680307915.9,286047013.5,N
1680307935.7,286047009.1,N
1680307955.6,286047005.9,N
1680307975.4,286047008.9,N
1680307995.2,286047006.9,N
1680308015.1,286047019.3,Y
1680308016.0,286047019.3,P
1680308035.8,286047009.4,N
1680308055.7,286047013.0,N
1680308075.5,286047010.4,N
1680308095.3,286047005.6,N
1680308115.2,286046999.7,N
1680308135.9,286047000.3,N
1680308155.7,286046999.8,N
1680308175.6,286047002.3,N
1680308195.4,286047003.1,N
1680308215.2,286047007.9,N
1680308235.1,286047007.1,N
1680308236.0,286047007.1,N
1680308255.8,286047003.6,N
1680308275.7,286047001.5,N
1680308295.5,286047001.4,N
1680308315.3,286047006.0,N
1680308335.2,286047007.9,N
1680308355.0,286047016.5,Y
1680308355.9,286047016.5,P
1680308375.8,286047008.5,N
1680308395.6,286047003.3,N
1680308415.4,286047001.6,N
1680308435.3,286047004.2,N
1680308455.1,286047003.5,N
1680308475.8,286047011.9,N
1680308495.7,286047009.7,N
1680308515.5,286047007.1,N
1680308535.4,286047005.6,N
1680308555.2,286047003.2,N
1680308575.0,286047003.1,N
1680308575.9,286047003.1,N
1680308595.8,286047011.4,N
1680308615.6,286047019.8,Y
1680308635.4,286047009.0,P
1680308655.3,286047005.4,P
1680308675.1,286046998.6,N
1680308695.9,286046994.0,N
1680308715.7,286046990.6,N
1680308735.5,286046992.7,N
1680308755.4,286046992.2,N
1680308775.2,286046992.4,N
1680308795.0,286046994.3,N
1680308826.0,286047002.8,E
1680308835.9,286047000.2,N
1680308855.7,286046998.3,P
1680308875.6,286046999.4,N
1680308895.4,286046996.8,Y
1680308915.2,286046996.5,P
1680308935.1,286046997.9,N
1680308936.0,286046997.9,N
1680308955.8,286046999.0,N
1680308975.7,286046998.6,N
1680308995.5,286046998.4,N
1680309015.3,286046998.9,N
1680309035.2,286047001.0,N
1680309055.0,286047001.3,N
1680309055.9,286047001.3,N
1680309075.7,286047004.4,N
1680309095.6,286047007.0,Y
1680309115.4,286047004.6,P
1680309135.3,286047009.1,P
1680309155.1,286047009.0,N
1680309175.8,286047012.3,Y
1680309195.7,286047002.0,P
1680309215.5,286047001.1,N
1680309235.4,286047000.5,N
1680309255.2,286046998.2,N
1680309275.0,286046994.9,N
1680309275.9,286046994.9,N
1680309295.8,286046995.5,N
1680309315.6,286046993.5,N
1680309335.4,286046995.9,N
1680309355.3,286046996.1,N
1680309375.1,286046991.8,N
1680309395.9,286046994.8,N
1680309415.7,286046996.3,N
1680309435.5,286046990.6,N
1680309455.4,286046992.8,N
1680309475.2,286046993.1,N
1680309495.0,286046994.8,N
1680309495.9,286046994.8,N
1680309515.8,286046990.5,N
1680309535.6,286046989.7,N
1680309555.5,286046984.4,Y
1680309575.3,286046985.4,P
1680309595.1,286046995.5,N
1680309615.9,286046992.9,N
1680309635.7,286046989.3,N
1680309655.5,286046987.3,Y
1680309675.4,286046994.3,P
1680309695.2,286046993.2,P
1680309715.1,286046994.1,P
1680309716.0,286046994.1,Y
1680309735.8,286047004.4,P
1680309755.6,286047002.9,N
1680309775.5,286047005.1,N
1680309795.3,286047006.0,N
1680309815.1,286047003.8,N
1680309835.9,286047005.5,N
1680309855.7,286047006.4,N
1680309875.6,286047006.9,N
1680309895.4,286047010.3,N
1680309915.2,286047008.0,N
1680309935.1,286047005.8,N
1680309936.0,286047005.8,N
1680309955.8,286047008.8,N
1680309975.7,286047006.9,N
1680309995.5,286047001.7,N
1680310015.3,286047003.3,N
1680310035.2,286047000.1,N
1680310055.9,286047000.4,N
1680310075.7,286046999.8,N
1680310095.6,286047000.2,N
1680310115.4,286047005.1,N
1680310135.2,286047005.9,N
1680310155.1,286047006.2,N
1680310156.0,286047006.2,N
1680310175.8,286047012.0,Y
1680310195.7,286047011.1,P
1680310215.5,286047014.0,P
1680310235.3,286047013.7,P
1680310255.2,286047014.6,Y
1680310275.0,286047004.0,P
1680310275.9,286047004.0,N
1680310295.8,286047003.2,N
1680310315.6,286047002.7,N
1680310335.4,286047005.2,N
1680310355.3,286047001.5,N
1680310375.1,286047002.8,N
1680310395.8,286047001.5,N
1680310415.7,286047001.9,N
1680310435.5,286047000.7,N
1680310455.4,286046998.1,N
1680310475.2,286046999.4,N
1680310495.0,286046998.0,N
1680310495.9,286046998.0,N
1680310515.8,286046996.3,N
1680310535.6,286046993.6,N
1680310555.4,286046993.7,N
1680310575.3,286046993.0,N
1680310595.1,286046994.0,N
1680310615.9,286046998.3,N
1680310635.7,286047005.1,N
1680310655.5,286047008.7,N
1680310675.4,286047003.8,N
1680310695.2,286047002.5,N
1680310715.0,286046999.7,N
1680310715.9,286046999.7,N
1680310735.8,286047000.7,N
1680310755.6,286047000.1,N
1680310775.4,286046999.8,N
1680310795.3,286047000.5,N
